Regional Weather Roundup
Issued by NWS

Home | Current Version | Previous Version | Graphics & Text | Print | Product List | Glossary On
Versions: 1 2 3 4 5 6 7 8 9 10 11 12 13 14 15 16 17 18 19 20 21 22 23 24 25 26 27 28 29 30 31 32 33 34 35 36 37 38 39 40 41 42 43 44 45 46 47 48 49 50
921
ASUS44 KJAN 180910
RWRMS

MISSISSIPPI HOURLY WEATHER ROUNDUP
NATIONAL WEATHER SERVICE JACKSON MS
300 AM CST THU DEC 18 2014

NOTE: "FAIR: INDICATES FEW OR NO CLOUDS BELOW 12,000 FEET WITH NO
SIGNIFICANT WEATHER AND/OR OBSTRUCTIONS TO VISIBILITY.

MSZ001>002-007>008-010>013-018>021-025>028-034>036-181000-
NORTHWEST MISSISSIPPI

CITY           SKY/WX    TMP DP  RH WIND       PRES   REMARKS
CLARKSDALE     CLOUDY    39  37  93 NE7       30.26F WCI  34
CLEVELAND      DRIZZLE   41  38  92 NE8       30.25F
GREENWOOD      CLOUDY    44  37  76 N6        30.25F
GREENVILLE     LGT RAIN  42  38  85 NE8       30.24F
GRENADA        CLOUDY    41  34  75 CALM      30.26F
OLIVE BRANCH   CLOUDY    36  36 100 CALM      30.26F
OXFORD         CLOUDY    37  32  81 NE6       30.27F WCI  33
TUNICA         LGT RAIN  37  36  93 N5        30.27R WCI  34
$$

MSZ003>006-009-014>017-022>024-029>033-037>039-181000-
NORTHEAST MISSISSIPPI

CITY           SKY/WX    TMP DP  RH WIND       PRES   REMARKS
COLUMBUS AFB   CLOUDY    40  36  84 N5        30.25R
CORINTH        CLOUDY    39  32  75 VRB5      30.26F
GOLDN TRIANGLE CLOUDY    39  36  87 N6        30.23S WCI  35
STARKVILLE     CLOUDY    39  36  87 CALM      30.25S
TUPELO         CLOUDY    41  33  73 NE8       30.25S
$$

MSZ040-058-181000-
CENTRAL MISSISSIPPI

CITY           SKY/WX    TMP DP  RH WIND       PRES   REMARKS
JACKSON INTL   CLOUDY    45  40  82 N5        30.22R
JACKSON HAWKNS CLOUDY    46  39  76 NW3       30.23R
MERIDIAN KEY   PTCLDY    36  33  89 CALM      30.22F
MERIDIAN NAS   CLEAR     37  35  92 CALM      30.23S
RAYMOND        PTSUNNY   45  39  81 CALM      30.20S
VICKSBURG      LGT RAIN  46  39  76 NE8       30.21F
$$

MSZ059>079-181000-
SOUTH MISSISSIPPI

CITY           SKY/WX    TMP DP  RH WIND       PRES   REMARKS
HATTIESBURG    CLOUDY    41  39  93 CALM      30.21S
MCCOMB         CLOUDY    44  41  89 E3        30.18S
NATCHEZ        CLOUDY    48  39  71 E3        30.18F
PINE BELT      MOCLDY    43  37  81 NE5       30.20F
$$

MSZ080>082-181000-
COASTAL MISSISSIPPI

CITY           SKY/WX    TMP DP  RH WIND       PRES   REMARKS
BILOXI         MOCLDY    47  43  85 NE3       30.18S
PASCAGOULA     PTCLDY    38  38 100 CALM      30.18F
GULFPORT       MOCLDY    44  41  89 NW3       30.18S
$$



USA.gov is the U.S. government's official web portal to all federal, state and local government web resources and services.